Precipitable_Water
1.08 1.13 1.01 0.98 0.99 1.06 1.10 1.17 1.20 1.26 1.29 1.31 1.27 1.30 1.26 1.24 1.25 1.19 1.12 1.11 1.10 1.11 1.13 1.12 1.07 1.02 1.02 1.01 0.96 0.97 0.97 0.99 1.06 1.10 1.18 1.22 1.24 1.28 1.40 1.45 1.49 1.45 1.44
1.26 1.20 1.08 0.97 0.99 1.06 1.12 1.17 1.21 1.25 1.31 1.32 1.31 1.31 1.30 1.29 1.26 1.18 1.13 1.10 1.11 1.18 1.18 1.14 1.10 1.05 1.01 0.98 0.96 0.95 0.92 0.91 0.98 1.13 1.34 1.37 1.26 1.29 1.35 1.42 1.46 1.38 1.43
1.26 1.29 1.13 1.01 1.01 1.05 1.13 1.18 1.23 1.27 1.30 1.32 1.33 1.33 1.32 1.30 1.24 1.17 1.13 1.15 1.19 1.19 1.15 1.13 1.13 1.06 1.02 0.99 0.98 0.96 0.93 0.88 0.92 1.24 1.31 1.44 1.60 1.35 1.27 1.34 1.36 1.39 1.44
1.29 1.32 1.21 1.06 1.05 1.09 1.14 1.20 1.24 1.29 1.29 1.31 1.32 1.34 1.30 1.29 1.25 1.19 1.14 1.20 1.19 1.15 1.16 1.15 1.07 1.02 0.98 0.96 0.93 0.92 0.94 0.94 1.08 1.30 1.39 1.57 1.52 1.41 1.26 1.31 1.33 1.35 1.42
1.28 1.33 1.27 1.14 1.10 1.12 1.16 1.22 1.25 1.31 1.32 1.32 1.32 1.29 1.30 1.29 1.26 1.18 1.17 1.20 1.20 1.18 1.17 1.10 1.01 0.95 0.89 0.87 0.82 0.80 0.83 0.91 1.15 1.28 1.31 1.39 1.32 1.31 1.29 1.35 1.37 1.43 1.43
1.31 1.34 1.35 1.20 1.18 1.15 1.18 1.24 1.29 1.33 1.36 1.33 1.31 1.29 1.29 1.28 1.24 1.19 1.22 1.21 1.24 1.20 1.12 1.02 0.94 0.86 0.80 0.73 0.67 0.66 0.70 0.83 1.00 1.23 1.19 1.19 1.18 1.22 1.26 1.34 1.31 1.32 1.34
1.32 1.39 1.39 1.30 1.24 1.24 1.24 1.29 1.31 1.35 1.38 1.35 1.33 1.31 1.28 1.28 1.22 1.21 1.25 1.25 1.23 1.17 1.06 0.96 0.87 0.76 0.67 0.59 0.53 0.52 0.64 0.75 0.93 1.03 0.98 1.02 1.13 1.22 1.25 1.25 1.25 1.26 1.25
1.34 1.42 1.47 1.45 1.31 1.31 1.31 1.33 1.34 1.35 1.38 1.36 1.35 1.31 1.26 1.26 1.23 1.26 1.29 1.27 1.22 1.10 1.02 0.91 0.78 0.67 0.55 0.49 0.44 0.41 0.50 0.64 0.83 0.99 0.99 0.98 1.08 1.12 1.15 1.15 1.16 1.18 1.20
1.37 1.48 1.51 1.57 1.45 1.38 1.37 1.36 1.35 1.35 1.38 1.37 1.33 1.28 1.25 1.26 1.25 1.29 1.32 1.28 1.19 1.07 0.99 0.85 0.71 0.61 0.51 0.44 0.40 0.37 0.41 0.61 0.77 0.95 0.96 0.96 0.97 0.98 1.01 1.05 1.07 1.10 1.11
1.29 1.40 1.50 1.59 1.55 1.40 1.46 1.43 1.37 1.32 1.37 1.35 1.31 1.30 1.29 1.26 1.30 1.29 1.29 1.29 1.20 1.04 0.93 0.79 0.66 0.56 0.49 0.44 0.41 0.39 0.54 0.63 0.79 0.92 0.95 0.90 0.83 0.83 0.85 0.88 0.90 0.92 0.92
1.19 1.28 1.39 1.46 1.55 1.39 1.42 1.40 1.38 1.31 1.33 1.36 1.38 1.34 1.31 1.32 1.33 1.31 1.27 1.25 1.20 1.04 0.87 0.76 0.65 0.54 0.49 0.45 0.43 0.49 0.61 0.70 0.85 0.89 0.88 0.81 0.78 0.77 0.76 0.75 0.77 0.79 0.80
1.06 1.14 1.29 1.38 1.43 1.39 1.39 1.40 1.38 1.37 1.41 1.38 1.42 1.40 1.37 1.34 1.35 1.32 1.25 1.23 1.19 1.04 0.87 0.74 0.64 0.55 0.50 0.47 0.53 0.61 0.69 0.87 0.88 0.87 0.84 0.80 0.78 0.79 0.73 0.70 0.71 0.68 0.68
1.08 1.16 1.15 1.16 1.32 1.35 1.36 1.45 1.45 1.45 1.45 1.48 1.49 1.45 1.42 1.41 1.39 1.30 1.23 1.19 1.15 1.04 0.88 0.77 0.65 0.61 0.60 0.49 0.54 0.66 0.74 0.88 0.88 0.87 0.81 0.80 0.80 0.81 0.76 0.74 0.73 0.70 0.68
0.99 1.14 1.20 1.18 1.17 1.31 1.36 1.42 1.50 1.48 1.49 1.47 1.51 1.52 1.49 1.48 1.40 1.27 1.21 1.16 1.12 1.02 0.88 0.77 0.64 0.67 0.71 0.63 0.64 0.67 0.82 0.89 0.88 0.85 0.82 0.81 0.82 0.83 0.75 0.72 0.72 0.68 0.67
0.84 1.06 1.19 1.21 1.14 1.18 1.31 1.37 1.38 1.43 1.52 1.55 1.57 1.62 1.58 1.54 1.44 1.33 1.25 1.16 1.10 0.99 0.90 0.78 0.69 0.73 0.65 0.68 0.68 0.69 0.92 0.91 0.88 0.78 0.79 0.79 0.83 0.83 0.79 0.77 0.74 0.70 0.68
0.74 0.88 1.10 1.19 1.22 1.20 1.18 1.30 1.34 1.41 1.42 1.50 1.61 1.63 1.63 1.60 1.48 1.35 1.29 1.17 1.07 0.98 0.93 0.81 0.83 0.75 0.69 0.69 0.70 0.80 0.92 0.91 0.86 0.77 0.78 0.75 0.76 0.76 0.80 0.80 0.75 0.71 0.69
0.64 0.67 0.89 1.06 1.13 1.16 1.15 1.19 1.29 1.36 1.40 1.41 1.43 1.56 1.61 1.61 1.53 1.38 1.34 1.21 1.11 1.01 0.96 0.89 0.86 0.82 0.74 0.74 0.78 0.83 0.88 0.86 0.81 0.74 0.74 0.72 0.72 0.74 0.74 0.74 0.72 0.70 0.69
0.55 0.55 0.74 1.03 1.09 1.11 1.14 1.18 1.22 1.33 1.36 1.37 1.34 1.35 1.42 1.50 1.51 1.40 1.32 1.27 1.20 1.05 0.95 0.89 0.85 0.81 0.80 0.79 0.77 0.78 0.80 0.81 0.78 0.73 0.71 0.69 0.69 0.68 0.68 0.67 0.67 0.66 0.66
0.65 0.67 0.69 1.04 1.09 1.13 1.18 1.23 1.24 1.27 1.33 1.33 1.34 1.32 1.30 1.34 1.42 1.33 1.30 1.27 1.23 1.09 0.99 0.91 0.86 0.83 0.82 0.82 0.77 0.75 0.73 0.72 0.72 0.72 0.74 0.71 0.68 0.64 0.62 0.62 0.60 0.61 0.61
0.70 0.70 0.72 0.95 1.17 1.20 1.21 1.23 1.28 1.28 1.23 1.33 1.30 1.29 1.28 1.31 1.33 1.31 1.28 1.26 1.22 1.09 1.01 0.95 0.89 0.89 0.85 0.83 0.75 0.73 0.72 0.71 0.70 0.68 0.68 0.73 0.72 0.63 0.59 0.59 0.56 0.57 0.58
0.68 0.68 0.69 0.74 1.03 1.22 1.16 1.08 1.06 1.08 1.20 1.26 1.30 1.33 1.35 1.34 1.32 1.30 1.26 1.24 1.23 1.10 1.04 0.98 0.92 0.87 0.87 0.85 0.76 0.73 0.72 0.71 0.69 0.69 0.66 0.69 0.71 0.64 0.63 0.61 0.60 0.60 0.58
0.57 0.64 0.65 0.65 0.71 0.90 1.24 1.24 1.17 1.09 1.11 1.18 1.25 1.30 1.29 1.30 1.33 1.24 1.25 1.22 1.13 1.11 1.07 0.98 0.91 0.87 0.86 0.84 0.76 0.71 0.61 0.63 0.68 0.70 0.68 0.73 0.70 0.63 0.62 0.60 0.61 0.60 0.57
0.58 0.63 0.66 0.68 0.66 0.78 0.90 1.17 1.29 1.24 1.14 1.08 1.08 1.12 1.17 1.26 1.27 1.31 1.25 1.21 1.14 1.11 1.06 1.01 0.94 0.88 0.85 0.87 0.83 0.70 0.61 0.54 0.61 0.69 0.68 0.74 0.69 0.65 0.63 0.60 0.59 0.61 0.59
0.61 0.67 0.69 0.66 0.65 0.68 0.78 0.90 1.06 1.12 1.07 1.05 1.08 1.12 1.12 1.15 1.16 1.26 1.26 1.23 1.16 1.18 1.05 1.00 0.95 0.94 0.90 0.82 0.86 0.80 0.72 0.66 0.57 0.55 0.65 0.71 0.72 0.67 0.67 0.62 0.60 0.60 0.57
0.59 0.61 0.67 0.67 0.66 0.67 0.69 0.79 0.83 0.86 1.11 1.23 1.13 1.10 1.15 1.14 1.14 1.12 1.20 1.26 1.18 1.15 1.11 1.01 0.97 0.92 0.90 0.86 0.85 0.79 0.76 0.69 0.66 0.60 0.54 0.62 0.72 0.73 0.72 0.65 0.62 0.60 0.58
0.49 0.57 0.61 0.61 0.61 0.65 0.61 0.62 0.66 0.74 0.81 0.87 1.07 1.07 1.02 1.07 1.15 1.15 1.12 1.17 1.23 1.15 1.14 1.10 1.03 0.98 0.94 0.91 0.89 0.80 0.76 0.69 0.66 0.62 0.59 0.64 0.66 0.72 0.73 0.67 0.63 0.60 0.58
Wind_Speed
6 7 7 7 7 7 6 6 5 5 4 4 3 2 1 1 1 1 1 2 2 3 4 4 5 4 4 3 3 3 3 3 2 2 2 2 2 1 2 3 1 1 1
9 9 9 9 9 9 8 7 6 6 6 5 5 4 3 2 2 2 2 2 2 3 4 4 5 4 4 3 3 3 2 2 2 2 2 2 2 2 2 1 1 0 0
11 11 11 11 11 10 10 10 9 8 7 7 6 6 5 4 4 3 3 3 3 3 4 4 4 4 4 3 3 3 3 2 2 3 4 4 4 2 2 1 1 0 0
13 13 13 13 13 12 12 11 10 10 9 8 8 7 7 6 5 5 4 4 4 5 5 5 5 5 4 4 3 3 3 3 3 4 3 2 2 3 3 2 2 1 1
14 14 14 14 14 14 13 12 12 12 11 11 10 9 8 7 7 6 6 5 5 6 6 5 5 5 5 5 4 4 4 4 4 4 3 4 4 3 3 3 3 3 2
16 16 14 15 15 15 14 14 13 13 12 12 11 11 10 9 8 7 7 7 7 7 7 6 6 6 6 5 5 5 4 4 6 3 5 5 4 4 4 4 4 4 5
17 16 15 15 16 16 16 15 14 14 14 13 13 12 12 11 10 9 9 8 8 8 8 7 7 7 7 6 6 5 5 5 5 4 5 4 4 4 4 4 5 5 5
18 17 16 15 16 16 16 16 16 15 15 15 14 14 13 13 12 11 11 10 10 9 9 8 8 8 8 7 7 7 6 6 6 5 5 5 4 4 4 5 5 5 5
17 16 15 16 16 17 18 18 17 17 16 16 16 15 15 14 14 13 12 11 11 11 10 10 9 9 9 8 8 7 7 7 7 6 6 5 6 6 6 6 6 6 7
16 16 15 17 17 18 18 18 18 18 17 17 17 17 16 16 15 15 14 14 13 12 11 11 11 10 10 9 8 7 7 8 7 7 7 7 8 8 7 8 8 8 9
16 16 15 16 17 18 19 19 19 19 19 19 18 17 17 17 17 17 16 16 15 14 13 12 12 11 11 10 9 8 8 9 8 8 8 8 8 8 8 8 8 8 8
17 17 18 16 17 19 20 20 21 21 21 21 21 20 19 19 19 19 18 18 17 16 15 14 13 12 11 11 10 9 9 8 8 8 8 8 8 8 9 8 8 9 9
18 17 18 18 18 18 20 20 21 22 23 23 23 23 22 21 21 20 20 20 19 18 17 16 15 14 13 12 12 12 10 9 9 9 9 9 9 9 9 9 9 8 9
17 18 17 18 18 19 19 20 21 22 23 24 25 25 24 23 22 22 22 22 22 21 20 19 18 17 16 16 15 13 13 11 11 11 10 9 9 9 10 9 10 10 10
17 17 18 18 19 20 21 21 22 23 24 25 26 26 26 25 25 24 24 24 24 24 23 22 20 19 18 17 16 16 15 13 12 12 11 11 10 10 10 10 10 10 11
17 17 19 19 19 20 21 23 23 24 25 26 27 27 28 27 26 27 26 26 25 25 25 24 23 22 20 19 18 18 16 15 13 13 13 12 12 11 10 10 10 11 11
18 20 21 21 21 22 23 24 26 26 26 27 28 29 29 30 29 29 29 28 27 27 26 25 25 24 22 22 21 20 19 18 17 16 15 15 13 13 12 12 12 12 12
20 21 20 22 23 24 25 26 26 28 29 30 30 31 31 32 31 31 31 30 29 29 28 28 27 26 25 24 23 22 21 20 19 18 17 16 16 14 14 13 13 13 13
16 17 19 22 24 25 26 28 29 30 31 32 34 34 34 34 34 33 33 32 32 31 31 30 29 29 27 26 25 24 24 23 22 20 19 18 17 16 15 15 14 14 14
16 17 19 21 24 26 27 29 30 32 33 35 36 37 38 37 37 37 35 35 35 34 33 33 32 31 30 29 27 26 25 25 24 23 22 19 20 18 17 17 16 15 15
18 20 21 22 24 28 30 31 33 35 36 37 38 39 40 40 40 40 38 38 38 36 36 35 33 33 32 31 28 27 26 27 26 26 24 23 21 20 20 19 18 17 16
22 24 25 26 28 29 33 35 36 37 39 40 42 43 43 44 43 43 43 41 41 39 38 37 36 34 34 34 32 29 29 29 29 28 27 26 24 23 22 21 19 19 17
28 28 29 30 32 34 35 37 39 40 41 42 44 46 48 49 49 48 47 46 44 42 42 41 39 37 36 36 36 32 31 31 30 30 29 28 26 25 25 23 22 20 19
32 33 35 36 36 37 37 38 40 43 45 46 48 49 49 51 53 53 52 50 49 47 44 44 42 40 38 38 38 36 34 33 32 30 31 30 28 27 26 25 23 22 21
34 35 36 38 39 39 38 39 41 43 47 50 51 52 53 53 53 54 55 54 53 51 48 46 45 44 42 41 40 38 36 35 34 33 32 31 30 29 29 28 26 23 21
38 38 40 42 41 43 44 45 47 49 51 51 52 54 56 57 56 57 56 57 56 55 53 50 47 46 44 42 41 40 38 36 35 34 32 32 30 28 29 28 27 26 24
Wind_Direction
303 292 269 273 271 267 264 257 250 245 241 241 245 258 281 313 334 337 342 354 0 8 7 3 1 357 355 350 343 337 335 338 338 333 334 331 319 315 326 328 291 324 34
287 287 271 269 268 262 258 252 249 244 243 240 244 250 261 276 292 300 303 310 323 343 352 354 354 353 350 348 348 347 341 338 335 330 333 333 319 303 307 345 10 3 76
289 283 274 264 263 259 255 249 248 246 242 242 245 246 255 265 274 283 283 291 302 315 328 338 343 342 339 336 331 332 332 322 311 329 306 296 306 286 284 282 292 266 181
285 283 275 263 261 257 252 248 246 246 241 243 244 247 252 260 268 273 275 278 293 300 310 320 328 332 329 321 313 309 308 300 300 314 338 329 318 289 266 254 249 228 220
286 282 276 262 258 256 251 248 246 246 243 243 246 247 252 256 262 266 270 277 285 293 300 304 311 318 320 314 305 296 292 288 299 295 295 307 305 293 261 247 243 238 243
283 282 273 262 257 253 249 248 246 247 244 243 246 247 251 254 258 262 265 275 280 285 288 292 296 302 308 308 300 291 281 277 298 284 296 288 286 282 262 250 253 250 254
282 279 271 262 256 250 248 247 247 246 245 244 246 247 250 254 257 260 264 272 277 279 282 283 284 290 297 298 294 284 272 279 289 287 295 290 282 277 262 257 257 257 255
279 275 266 262 255 251 247 248 247 246 246 246 247 249 251 254 256 260 264 269 271 275 276 278 279 283 288 290 287 279 269 273 284 281 288 278 281 278 272 264 261 259 257
274 269 264 261 256 250 246 248 247 245 246 247 249 250 251 253 257 258 262 265 268 270 272 274 275 279 281 282 279 274 267 274 282 271 278 275 274 281 273 265 262 261 259
270 267 265 261 258 250 249 245 245 246 247 249 250 251 251 254 255 257 259 263 265 267 268 270 272 274 276 275 274 268 267 272 270 274 275 275 276 275 274 268 265 263 265
269 267 267 262 260 249 249 248 246 247 249 249 249 250 252 256 256 257 258 259 263 264 265 267 269 271 270 269 265 262 269 272 270 274 277 274 272 273 274 273 268 264 265
270 264 264 263 259 251 251 250 250 249 249 250 250 250 253 256 258 258 257 257 260 261 262 264 266 265 264 260 258 262 270 268 271 276 275 272 272 271 274 272 271 268 269
268 266 262 261 259 254 252 251 251 251 251 251 251 251 254 257 258 257 255 257 258 257 259 260 260 260 261 257 256 263 259 267 271 274 273 272 272 271 271 271 269 270 272
266 265 262 262 259 256 255 254 254 253 252 252 252 252 254 257 258 257 256 257 257 256 257 256 256 258 260 257 256 255 258 261 267 270 271 273 273 271 269 270 270 270 272
273 264 264 261 259 258 256 256 256 255 255 253 253 253 254 257 258 258 258 257 257 255 254 254 254 256 254 253 251 250 258 257 263 262 265 271 272 270 271 267 268 271 274
276 271 264 261 261 261 259 257 258 259 258 257 255 255 254 257 259 258 259 258 256 254 252 251 252 254 253 251 249 250 255 256 257 259 262 267 269 269 269 268 269 272 275
275 276 268 262 262 262 262 262 259 260 259 258 257 257 256 257 259 257 260 257 256 253 251 250 250 250 251 249 248 248 252 253 256 257 259 262 264 264 267 269 271 272 277
281 281 276 263 261 264 265 266 263 263 260 261 260 259 257 257 258 257 258 257 255 253 252 251 249 248 248 248 247 248 250 252 252 255 257 257 260 260 264 269 271 275 278
288 291 283 267 265 264 267 267 265 265 261 261 260 260 257 256 257 259 258 256 254 252 251 250 248 248 246 246 247 248 249 250 251 253 254 256 255 256 261 266 270 274 279
302 297 290 283 271 269 267 268 267 265 263 262 261 259 257 256 257 258 256 256 254 251 249 249 248 247 246 245 245 247 248 250 250 251 253 254 253 255 259 263 267 274 277
299 299 296 292 286 276 272 268 268 266 265 263 261 259 257 256 255 255 254 255 253 250 249 248 247 245 244 243 243 246 247 249 248 250 251 251 253 254 256 262 265 270 275
297 295 294 292 290 289 278 273 270 269 267 266 263 261 259 256 255 254 251 253 251 250 248 246 246 244 244 242 244 245 248 250 249 248 249 251 253 253 255 259 261 266 271
295 294 293 293 291 287 286 279 274 272 270 267 265 263 260 258 256 253 251 250 250 249 248 246 245 243 243 243 241 248 248 251 245 247 248 249 251 250 254 256 259 262 267
294 293 292 292 292 289 286 285 279 274 273 271 268 264 262 259 256 253 251 248 248 248 248 245 243 243 245 244 243 247 249 247 246 247 247 247 247 249 254 253 257 259 263
297 296 294 294 293 291 289 285 283 282 277 274 271 267 263 260 257 254 250 247 246 245 246 245 243 243 246 245 247 245 249 246 245 246 244 243 247 251 252 252 253 255 259
298 297 296 296 294 293 292 289 286 283 281 279 275 269 265 260 257 254 250 247 245 244 244 243 243 243 245 246 246 245 246 245 245 244 242 241 245 251 252 248 249 252 254